| time (UTC) | temp F | wind direction | speed knots | gust knots | rain 1hr in | rain 24hr in | rain mn in | humidity % | barometer mb |
| 20260504034523 | 49 | 214 | 6.1 | 8.7 | 0.00 | 0.00 | 0.00 | 56 | 999.7 |
| 20260504033023 | 50 | 201 | 6.1 | 7.8 | 0.00 | 0.00 | 0.00 | 53 | 999.9 |
| 20260504031520 | 51 | 203 | 6.1 | 7.8 | 0.00 | 0.00 | 0.00 | 52 | 1000.2 |
| 20260504030027 | 52 | 207 | 7.0 | 9.6 | 0.00 | 0.00 | 0.00 | 53 | 1000.4 |
| 20260504024516 | 54 | 205 | 7.0 | 9.6 | 0.00 | 0.00 | 0.00 | 50 | 1000.6 |
| 20260504023014 | 52 | 216 | 6.1 | 9.6 | 0.00 | 0.00 | 0.00 | 53 | 1000.9 |
| 20260504021513 | 52 | 229 | 4.3 | 7.8 | 0.00 | 0.00 | 0.00 | 52 | 1001.0 |
| 20260504020017 | 54 | 231 | 5.2 | 7.0 | 0.00 | 0.00 | 0.00 | 48 | 1001.1 |
| 20260504014512 | 54 | 219 | 3.5 | 6.1 | 0.00 | 0.00 | 0.00 | 48 | 1001.1 |
| 20260504013011 | 58 | 243 | 3.5 | 5.2 | 0.00 | 0.00 | 0.00 | 42 | 1001.2 |
| 20260504011509 | 63 | 233 | 3.5 | 7.8 | 0.00 | 0.00 | 0.00 | 36 | 1001.4 |
| 20260504010007 | 65 | 228 | 2.6 | 6.1 | 0.00 | 0.00 | 0.00 | 34 | 1001.5 |
| 20260504004507 | 67 | 273 | 4.3 | 7.0 | 0.00 | 0.00 | 0.00 | 30 | 1001.6 |
| 20260504003005 | 68 | 240 | 5.2 | 9.6 | 0.00 | 0.00 | 0.00 | 28 | 1001.7 |
| 20260504001504 | 68 | 262 | 7.0 | 12.2 | 0.00 | 0.00 | 0.00 | 28 | 1001.8 |
| 20260504000006 | 69 | 270 | 5.2 | 13.0 | 0.00 | 0.00 | 0.00 | 26 | 1001.8 |
| 20260503234503 | 69 | 262 | 7.8 | 12.2 | 0.00 | 0.00 | 0.00 | 25 | 1002.1 |
| 20260503233102 | 69 | 246 | 8.7 | 16.5 | 0.00 | 0.00 | 0.00 | 25 | 1002.3 |
| 20260503231559 | 70 | 256 | 7.8 | 13.9 | 0.00 | 0.00 | 0.00 | 25 | 1002.3 |
| 20260503230100 | 70 | 231 | 7.0 | 13.0 | 0.00 | 0.00 | 0.00 | 25 | 1002.6 |
| 20260503224555 | 70 | 267 | 11.3 | 14.8 | 0.00 | 0.00 | 0.00 | 24 | 1002.8 |
| 20260503223055 | 70 | 260 | 10.4 | 15.6 | 0.00 | 0.00 | 0.00 | 24 | 1003.0 |
| 20260503221552 | 71 | 285 | 9.6 | 15.6 | 0.00 | 0.00 | 0.00 | 25 | 1003.1 |
| 20260503220053 | 70 | 282 | 9.6 | 15.6 | 0.00 | 0.00 | 0.00 | 26 | 1003.3 |
| 20260503214549 | 70 | 298 | 7.0 | 13.9 | 0.00 | 0.00 | 0.00 | 25 | 1003.4 |
| 20260503213055 | 70 | 332 | 9.6 | 16.5 | 0.00 | 0.00 | 0.00 | 26 | 1003.5 |
| 20260503211544 | 70 | 264 | 4.3 | 13.9 | 0.00 | 0.00 | 0.00 | 27 | 1003.9 |
| 20260503210046 | 69 | 270 | 8.7 | 15.6 | 0.00 | 0.00 | 0.00 | 26 | 1004.1 |
| 20260503204543 | 69 | 252 | 7.8 | 18.2 | 0.00 | 0.00 | 0.00 | 28 | 1004.4 |
| 20260503203045 | 69 | 291 | 7.8 | 17.4 | 0.00 | 0.00 | 0.00 | 28 | 1004.8 |
| 20260503201541 | 70 | 322 | 9.6 | 14.8 | 0.00 | 0.00 | 0.00 | 27 | 1005.1 |
| 20260503200044 | 68 | 307 | 7.8 | 14.8 | 0.00 | 0.00 | 0.00 | 28 | 1005.4 |
| 20260503194539 | 68 | 297 | 5.2 | 13.9 | 0.00 | 0.00 | 0.00 | 31 | 1005.4 |
| 20260503193039 | 68 | 309 | 9.6 | 16.5 | 0.00 | 0.00 | 0.00 | 33 | 1005.6 |
| 20260503191534 | 68 | 309 | 10.4 | 17.4 | 0.00 | 0.00 | 0.00 | 34 | 1005.8 |
| 20260503190034 | 68 | 290 | 12.2 | 16.5 | 0.00 | 0.00 | 0.00 | 36 | 1006.1 |
| 20260503184533 | 68 | 300 | 6.1 | 15.6 | 0.00 | 0.00 | 0.00 | 36 | 1006.3 |
| 20260503183050 | 68 | 325 | 11.3 | 14.8 | 0.00 | 0.00 | 0.00 | 36 | 1006.5 |
| 20260503181530 | 67 | 295 | 11.3 | 14.8 | 0.00 | 0.00 | 0.00 | 37 | 1006.7 |
| 20260503180029 | 67 | 322 | 11.3 | 14.8 | 0.00 | 0.00 | 0.00 | 36 | 1006.8 |
| 20260503174526 | 66 | 273 | 7.8 | 13.9 | 0.00 | 0.00 | 0.00 | 37 | 1006.9 |
| 20260503173025 | 65 | 347 | 7.8 | 13.9 | 0.00 | 0.00 | 0.00 | 39 | 1007.0 |
| 20260503171521 | 64 | 334 | 6.1 | 13.9 | 0.00 | 0.00 | 0.00 | 39 | 1007.1 |
| 20260503081513 | 53 | 332 | 11.3 | 16.5 | 0.00 | 0.00 | 0.00 | 58 | 1005.4 |
| 20260503071507 | 53 | 308 | 12.2 | 16.5 | 0.00 | 0.00 | 0.00 | 58 | 1004.9 |
| 20260503054551 | 59 | 273 | 8.7 | 12.2 | 0.00 | 0.00 | 0.00 | 48 | 1004.3 |
| 20260503053041 | 60 | 287 | 5.2 | 10.4 | 0.00 | 0.00 | 0.00 | 47 | 1004.3 |
| 20260503051538 | 60 | 262 | 5.2 | 9.6 | 0.00 | 0.00 | 0.00 | 46 | 1004.3 |
| 20260503050037 | 60 | 246 | 7.0 | 9.6 | 0.00 | 0.00 | 0.00 | 46 | 1004.4 |
| 20260503044533 | 58 | 233 | 7.0 | 10.4 | 0.00 | 0.00 | 0.00 | 51 | 1004.4 |
| 20260503043033 | 58 | 248 | 7.0 | 11.3 | 0.00 | 0.00 | 0.00 | 50 | 1004.5 |
| 20260503041532 | 59 | 265 | 8.7 | 11.3 | 0.00 | 0.00 | 0.00 | 49 | 1004.5 |
| 20260503040036 | 59 | 249 | 6.1 | 10.4 | 0.00 | 0.00 | 0.00 | 48 | 1004.5 |